TimeEST,TemperatureF,Dew PointF,Humidity,Sea Level PressureIn,VisibilityMPH,Wind Direction,Wind SpeedMPH,Gust SpeedMPH,PrecipitationIn,Events,Conditions,WindDirDegrees,DateUTC
12:19 AM,39.2,33.8,81,30.19,10.0,Calm,Calm,-,N/A,,Overcast,0,2012-11-04 04:19:00
12:53 AM,37.9,34.0,86,30.21,10.0,ESE,3.5,-,N/A,,Overcast,110,2012-11-04 04:53:00
1:53 AM,37.0,33.1,86,30.21,10.0,Calm,Calm,-,N/A,,Overcast,0,2012-11-04 05:53:00
2:53 AM,36.0,35.1,97,30.20,10.0,Calm,Calm,-,N/A,,Overcast,0,2012-11-04 07:53:00
3:53 AM,37.0,33.1,86,30.20,10.0,Calm,Calm,-,N/A,,Overcast,0,2012-11-04 08:53:00
4:53 AM,37.0,33.1,86,30.22,10.0,Calm,Calm,-,N/A,,Overcast,0,2012-11-04 09:53:00
5:53 AM,37.0,32.0,82,30.22,10.0,Calm,Calm,-,N/A,,Overcast,0,2012-11-04 10:53:00
6:22 AM,37.4,32.0,81,30.20,10.0,Calm,Calm,-,N/A,,Overcast,0,2012-11-04 11:22:00
6:53 AM,37.0,32.0,82,30.22,10.0,Calm,Calm,-,N/A,,Overcast,0,2012-11-04 11:53:00
7:28 AM,37.4,33.8,87,30.20,10.0,Calm,Calm,-,N/A,,Overcast,0,2012-11-04 12:28:00
7:53 AM,36.0,33.1,89,30.24,10.0,Calm,Calm,-,N/A,,Overcast,0,2012-11-04 12:53:00
8:53 AM,37.9,32.0,79,30.24,10.0,ENE,3.5,-,N/A,,Overcast,70,2012-11-04 13:53:00
9:53 AM,39.0,30.0,70,30.23,10.0,NE,4.6,-,N/A,,Overcast,50,2012-11-04 14:53:00
10:53 AM,39.9,28.9,65,30.23,10.0,North,6.9,-,N/A,,Mostly Cloudy,10,2012-11-04 15:53:00
11:53 AM,41.0,28.9,62,30.23,10.0,Variable,5.8,-,N/A,,Clear,0,2012-11-04 16:53:00
12:53 PM,41.0,28.0,60,30.22,10.0,Variable,6.9,-,N/A,,Scattered Clouds,0,2012-11-04 17:53:00
1:53 PM,41.0,28.9,62,30.21,10.0,NW,8.1,-,N/A,,Clear,320,2012-11-04 18:53:00
2:18 PM,41.0,30.2,65,30.19,10.0,NNW,8.1,-,N/A,,Mostly Cloudy,330,2012-11-04 19:18:00
2:53 PM,41.0,30.0,65,30.20,10.0,Variable,6.9,-,N/A,,Overcast,0,2012-11-04 19:53:00
3:38 PM,39.2,30.2,70,30.18,10.0,NW,8.1,-,N/A,,Mostly Cloudy,320,2012-11-04 20:38:00
3:53 PM,39.9,28.9,65,30.20,10.0,Variable,5.8,-,N/A,,Mostly Cloudy,0,2012-11-04 20:53:00
4:53 PM,39.9,28.9,65,30.20,10.0,Variable,5.8,-,N/A,,Overcast,0,2012-11-04 21:53:00
5:27 PM,39.2,28.4,65,30.18,10.0,Variable,5.8,-,N/A,,Mostly Cloudy,0,2012-11-04 22:27:00
5:53 PM,39.0,28.0,65,30.20,10.0,Variable,3.5,-,N/A,,Partly Cloudy,0,2012-11-04 22:53:00
6:53 PM,37.9,28.0,68,30.21,10.0,Calm,Calm,-,N/A,,Clear,0,2012-11-04 23:53:00
7:53 PM,30.9,27.0,85,30.21,10.0,Calm,Calm,-,N/A,,Clear,0,2012-11-05 00:53:00
8:53 PM,30.0,28.0,92,30.21,10.0,Calm,Calm,-,N/A,,Mostly Cloudy,0,2012-11-05 01:53:00
9:53 PM,30.0,27.0,88,30.21,10.0,Calm,Calm,-,N/A,,Overcast,0,2012-11-05 02:53:00
10:53 PM,30.0,28.0,92,30.20,9.0,Calm,Calm,-,N/A,,Mostly Cloudy,0,2012-11-05 03:53:00